Location: General Nathan Twining Observatory
(34.5931°N, 106.8201°W)
Time: 11:05:00
(UTC-07:00)

ADEOS II - Visible Passes

Search period start: 28 November 2014 00:00
Search period end: 08 December 2014 00:00
Orbit: 801 x 803 km, 98.3° (Epoch: 27 November)

Date Brightness Start Highest point End Pass type
(mag) Time Alt. Az. Time Alt. Az. Time Alt. Az.
28 Nov 2.4 05:52:44 10° NNE 05:58:00 73° ESE 06:03:13 10° S visible
29 Nov 3.5 05:26:58 10° NNE 05:31:53 40° E 05:36:47 10° SSE visible
29 Nov 4.9 18:24:07 10° SW 18:27:50 20° W 18:31:35 10° NW visible
30 Nov 4.6 05:01:41 10° NE 05:05:42 22° E 05:09:42 10° SE visible
30 Nov 3.9 17:56:52 10° SSW 18:01:38 35° W 18:06:25 10° NNW visible
01 Dec 5.3 04:37:39 10° ENE 04:39:24 12° E 04:41:10 10° ESE visible
01 Dec 2.1 06:14:21 10° N 06:19:34 68° WNW 06:24:46 10° SSW visible
01 Dec 2.6 17:30:18 10° S 17:35:30 65° WSW 17:40:44 10° NNW visible
02 Dec 2.5 05:48:18 10° NNE 05:53:33 67° ESE 05:58:45 10° S visible
02 Dec 5.4 18:48:09 10° WSW 18:49:39 11° W 18:51:10 10° WNW visible
03 Dec 3.7 05:22:36 10° NNE 05:27:25 36° E 05:32:13 10° SSE visible
03 Dec 4.7 18:19:26 10° SW 18:23:21 21° W 18:27:19 10° NW visible
04 Dec 4.7 04:57:24 10° NE 05:01:13 20° E 05:05:00 10° SE visible
04 Dec 3.7 17:52:18 10° SSW 17:57:09 38° W 18:02:03 10° NNW visible
05 Dec 5.4 04:34:03 10° E 04:34:54 10° E 04:35:45 10° E visible
05 Dec 2.0 06:09:52 10° N 06:15:07 74° WNW 06:20:20 10° SSW visible
05 Dec 2.5 17:25:49 10° S 17:31:03 71° WSW 17:36:18 10° NNW visible
06 Dec 2.7 05:43:52 10° NNE 05:49:05 61° E 05:54:15 10° S visible
06 Dec 5.3 18:43:01 10° WSW 18:45:09 12° W 18:47:17 10° WNW visible
07 Dec 3.9 05:18:13 10° NNE 05:22:56 33° E 05:27:38 10° SSE visible
07 Dec 4.6 18:14:45 10° SSW 18:18:52 23° W 18:23:00 10° NW visible
